星链-36566(STARLINK-36566)

导读 | 豆包AI

STARLINK-36566是美国于2026年1月22日发射的星链卫星,隶属于SpaceX公司的星链星座计划。星链项目旨在构建全球卫星互联网系统,为全球偏远地区、海洋等网络覆盖盲区提供高速宽带服务,该卫星的发射进一步扩充了星链星座的在轨规模,推进全球网络覆盖布局。

基本信息
目录编号:
67551
目录名称:
STARLINK-36566
国际标识:
2026-014V
轨道中心:
EARTH
卫星名称:
星链-36566
卫星全名:
星链-36566(STARLINK-36566)
卫星状态:
在轨 (已飞行123 天)
发射日期:
2026-01-22 UTC
国别 :
美国 (US)
星等 :
--
轨道信息
数据来源 国际轨道数据
星历时间: 2026-05-24T11:26:25+0800
1天前
查看轨道信息
半长轴: 6843.664km
偏心率: 0.000177
轨道倾角: 97.288°
近地点辐角 91.691°
升交点赤经 31.156°
平近点角 268.453°
近地点: 464.315km
远地点: 466.739km
周期: 93.906分钟
每日圈数: 15.334507
详细信息
固有亮度:
5
最大亮度:
2.5
卫星平台:
Starlink V1.0
覆盖范围:
全球
运营商:
太空探索技术公司
运营商所在国:
美国
制造商(研发单位):
太空探索技术公司
制造商所在国:
美国
使用方式:
暂无
卫星简介
Starlink 计划是 SpaceX 推出的全球卫星互联网项目,通过发射低轨道卫星,为全球尤其是偏远地区提供高速、低延迟的互联网服务。自 2019 年起,Starlink 已部署数千颗卫星,旨在缩小全球数字鸿沟,推动互联网普及。该项目还为军事、航空等行业提供通信支持,带来广泛经济效益。
2D轨道图
3D轨道图
轨道高度分析图
轨道倾角分析图
轨道综合分析图
查看轨道综合分析图